DW9007 Weather Reports


Display with metric or nautical units.
time (UTC)temp
F
wind
direction
speed
MPH
gust
MPH
rain 1hr
in
rain 24hr
in
rain mn
in
humidity
%
barometer
mb
20260503223100 70 335 0.0 3.0 0.00 0.00 0.00 38 1016.9
20260503221548 70 331 0.0 0.0 0.00 0.00 0.00 39 1017.0
20260503220039 70 279 0.0 0.0 0.00 0.00 0.00 41 1017.1
20260503214529 70 275 0.0 9.0 0.00 0.00 0.00 40 1017.2
20260503213018 70 261 0.0 3.0 0.00 0.00 0.00 40 1017.3
20260503211558 69 274 0.0 5.0 0.00 0.00 0.00 41 1017.5
20260503210059 69 304 0.0 7.0 0.00 0.00 0.00 42 1017.6
20260503204530 69 245 0.0 6.0 0.00 0.00 0.00 41 1017.8
20260503203030 69 346 1.0 5.0 0.00 0.00 0.00 42 1018.2
20260503201511 68 243 0.0 5.0 0.00 0.00 0.00 42 1018.4
20260503200004 68 259 2.0 9.0 0.00 0.00 0.00 43 1019.0
20260503194556 68 73 0.0 11.0 0.00 0.00 0.00 45 1019.0
20260503193042 67 225 1.0 14.0 0.00 0.00 0.00 44 1019.3
20260503191522 67 305 0.0 3.0 0.00 0.00 0.00 48 1019.6
20260503190019 67 348 0.0 5.0 0.00 0.00 0.00 48 1019.9
20260503184502 66 244 1.0 7.0 0.00 0.00 0.00 47 1020.2
20260503183004 66 68 1.0 7.0 0.00 0.00 0.00 49 1020.4
20260503181543 65 215 2.0 5.0 0.00 0.00 0.00 50 1020.6
20260503180051 65 88 1.0 8.0 0.00 0.00 0.00 51 1020.6
20260503174525 65 245 1.0 6.0 0.00 0.00 0.00 51 1020.9
20260503173027 64 313 1.0 5.0 0.00 0.00 0.00 52 1020.9
20260503171506 63 104 0.0 5.0 0.00 0.00 0.00 54 1021.2
20260503081507 46 44 0.0 0.0 0.00 0.00 0.00 82 1019.0
20260503071535 48 44 0.0 0.0 0.00 0.00 0.00 79 1018.6
20260503054533 52 67 0.0 2.0 0.00 0.00 0.00 72 1018.4
20260503053020 53 355 0.0 2.0 0.00 0.00 0.00 71 1018.3
20260503051500 53 35 1.0 5.0 0.00 0.00 0.00 70 1018.1
20260503050100 52 78 1.0 8.0 0.00 0.00 0.00 72 1017.8
20260503044547 51 184 0.0 0.0 0.00 0.00 0.00 75 1017.5
20260503043043 51 184 0.0 0.0 0.00 0.00 0.00 75 1017.3
20260503041543 51 184 0.0 0.0 0.00 0.00 0.00 74 1017.2
20260503040039 51 184 0.0 0.0 0.00 0.00 0.00 72 1017.1
20260503034537 52 184 0.0 0.0 0.00 0.00 0.00 72 1017.1
20260503033035 52 184 0.0 0.0 0.00 0.00 0.00 70 1016.9
20260503031539 52 184 0.0 0.0 0.00 0.00 0.00 70 1016.9
20260503030033 53 184 0.0 0.0 0.00 0.00 0.00 69 1016.9
20260503024529 53 184 0.0 0.0 0.00 0.00 0.00 68 1016.7
20260503023010 54 184 0.0 0.0 0.00 0.00 0.00 67 1016.6
20260503021507 54 185 0.0 0.0 0.00 0.00 0.00 66 1016.4
20260503020057 55 185 0.0 0.0 0.00 0.00 0.00 65 1016.3
20260503014553 55 185 0.0 0.0 0.00 0.00 0.00 63 1016.1
20260503013033 56 185 0.0 0.0 0.00 0.00 0.00 61 1015.9
20260503011520 57 185 0.0 0.0 0.00 0.00 0.00 58 1015.6
20260503010104 58 185 0.0 0.0 0.00 0.00 0.00 56 1015.5
20260503004555 60 185 0.0 0.0 0.00 0.00 0.00 53 1015.4
20260503003031 61 185 0.0 0.0 0.00 0.00 0.00 50 1015.2
20260503001527 63 185 0.0 0.0 0.00 0.00 0.00 47 1015.1
20260503000008 64 65 0.0 2.0 0.00 0.00 0.00 43 1014.8
20260502234506 64 33 0.0 6.0 0.00 0.00 0.00 42 1014.6
20260502233047 65 17 1.0 4.0 0.00 0.00 0.00 41 1014.6
20260502231612 66 46 1.0 5.0 0.00 0.00 0.00 42 1014.5
20260502230034 65 250 0.0 6.0 0.00 0.00 0.00 42 1014.6
20260502224534 65 80 0.0 3.0 0.00 0.00 0.00 43 1014.6